Preview of NWS' New Version of Forecast
This preview is not operational and should not be used for support decisions.

Regional Weather Roundup (RWR)

Issued by National Weather Service (NWS)

                            
000
ASUS46 KPQR 190510
RWROR 

OREGON REGIONAL WEATHER ROUNDUP
NATIONAL WEATHER SERVICE PORTLAND OR
1000 PM PDT THU APR 18 2019

NOTE: "FAIR" INDICATES FEW OR NO CLOUDS BELOW 12,000 FEET WITH
NO SIGNIFICANT WEATHER AND/OR OBSTRUCTIONS TO VISIBILITY.

ORZ001>013-190600-
NORTHWEST OREGON

  
CITY           SKY/WX    TMP DP  RH WIND       PRES   REMARKS
ASTORIA        CLOUDY    54  51  90 S3        30.12S                  
TILLAMOOK      CLOUDY    54  54 100 CALM      30.14S FOG              
NEWPORT        CLOUDY    54  52  94 N6        30.15S                  
PORTLAND       MOCLDY    64  49  57 NW6       30.08R                  
VANCOUVER WA   MOCLDY    64  48  56 NW5       30.07R                  
SCAPPOOSE      MOCLDY    62  50  64 N12       30.08R                  
HILLSBORO      CLOUDY    60  50  69 W8        30.07R                  
AURORA         CLOUDY    66  56  70 N6        30.08R                  
MCMINNVILLE    CLOUDY    61  50  67 W7        30.08R                  
SALEM          MOCLDY    63  44  50 W5        30.07R                  
CORVALLIS      PTCLDY    61  49  64 NW10      30.09R                  
EUGENE         PTCLDY    62  53  72 NE5       30.08R                  
$$

ORZ021-028-190600-
SOUTHWEST OREGON

  
CITY           SKY/WX    TMP DP  RH WIND       PRES   REMARKS
NORTH BEND     CLEAR     54  52  93 NW8       30.15R                  
BROOKINGS      CLEAR     54  52  93 CALM      30.08R                  
ROSEBURG       CLEAR     71  50  47 N5        30.07R                  
SEXTON SUMMIT  CLEAR     60  46  59 N10G21    30.15S                  
GRANTS PASS    FAIR      68  52  56 CALM      30.07R                  
MEDFORD        CLEAR     69  48  47 SW6       30.04R                  
$$

ORZ014>016-041-190600-
COLUMBIA GORGE

  
CITY           SKY/WX    TMP DP  RH WIND       PRES   REMARKS
TROUTDALE      MOCLDY    65  52  62 W7        30.07R                  
HOOD RIVER     MOCLDY    64  48  55 MISG      30.05S                  
THE DALLES     MOCLDY    71  49  45 SW7       30.01S                  
$$

ORZ029>031-041-044-049-050-061>064-502-503-505>511-190600-
EASTERN OREGON

  
CITY           SKY/WX    TMP DP  RH WIND       PRES   REMARKS
MADRAS         CLEAR     59  50  72 N7        30.11S                  
REDMOND        CLEAR     65  45  48 NW6       30.10R                  
BEND           CLEAR     61  45  55 NW7       30.12R                  
PRINEVILLE     CLEAR     55  45  67 CALM      30.11S                  
KLAMATH FALLS  CLEAR     54  43  66 N3        30.15R                  
LAKEVIEW       CLEAR     48  43  82 NW7       30.19S                  
HERMISTON      MOCLDY    66  54  65 S6        30.00S                  
PENDLETON      PTCLDY    61  51  70 SE5       30.03S                  
JOHN DAY       CLEAR     59  43  55 E9        30.14S                  
MEACHAM        CLEAR     46  41  82 CALM      30.14S                  
LA GRANDE      MOCLDY    64  45  49 S16G23    30.11F                  
BAKER CITY     CLEAR     54  32  43 E3        30.16S                  
BURNS          CLEAR     52  42  69 N5        30.17S                  
ROME             N/A     57  44  62 SE9       30.17S                  
ONTARIO        CLEAR     56  44  64 N3        30.15F                  
$$